Regional Weather Roundup
Issued by NWS Sioux Falls, SD

Home | Current Version | Previous Version | Text Only | Print | Product List | Glossary Off
Versions: 1 2 3 4 5 6 7 8 9 10 11 12 13 14 15 16 17 18 19 20 21 22 23 24 25 26 27 28 29 30 31 32 33 34 35 36 37 38 39 40 41 42 43 44 45 46 47 48 49 50

000
ASUS43 KFSD 150010
RWRFSD

WEATHER ROUNDUP FOR SE SOUTH DAKOTA/SW MINNESOTA/NW IOWA
NATIONAL WEATHER SERVICE SIOUX FALLS SD
700 PM CDT SUN SEP 14 2014

NOTE: "FAIR" INDICATES FEW OR NO CLOUDS BELOW 12,000 FEET WITH NO
SIGNIFICANT WEATHER AND OR OBSTRUCTIONS TO VISIBILITY.


SDZ038>040-050-052>070-150100-
SOUTHEAST SOUTH DAKOTA

CITY           SKY/WX    TMP DP  RH WIND       PRES   REMARKS
CHAMBERLAIN    CLOUDY    53  43  69 NE8       30.11F
6HR MIN TEMP:  53; 6HR MAX TEMP:  59;

HURON          LGT RAIN  50  46  86 E5        30.15R FOG
6HR MIN TEMP:  50; 6HR MAX TEMP:  59; 6HR PCP:  0.04;

MADISON        LGT RAIN  50  50 100 NE5       30.13R
MITCHELL       CLOUDY    54  45  71 N6        30.13R
6HR MIN TEMP:  54; 6HR MAX TEMP:  61;

SIOUX FALLS    CLOUDY    58  46  64 NE10      30.11R
6HR MIN TEMP:  58; 6HR MAX TEMP:  67;

WINNER         CLOUDY    55  42  61 NE13      30.10S
YANKTON        PTCLDY    63  52  67 NE5       30.09R
$$

MNZ071-072-080-081-089-090-097-098-150100-
SOUTHWEST MINNESOTA

CITY           SKY/WX    TMP DP  RH WIND       PRES   REMARKS
FAIRMONT       CLOUDY    61  43  51 N9        30.11S
JACKSON        MOCLDY    61  43  51 N8        30.12R
LUVERNE        MOCLDY    59  43  55 N6        30.11S
MARSHALL       CLOUDY    52  45  76 SW6       30.13R
6HR MIN TEMP:  52; 6HR MAX TEMP:  63; 6HR PCP:  0.03;

MONTEVIDEO     CLOUDY    57  46  67 CALM      30.13S
PIPESTONE      CLOUDY    55  43  62 NE6       30.13R
REDWOOD FALLS  LGT RAIN  57  43  59 W5        30.13R
TRACY          CLOUDY    53  46  77 CALM      30.14R
WINDOM         MOCLDY    57  43  58 N7        30.13R
WORTHINGTON    CLOUDY    57  43  58 N7        30.13R
$$

IAZ001>003-012>014-020>022-031-032-NEZ013-014-SDZ071-150100-
NORTHWEST IOWA

CITY           SKY/WX    TMP DP  RH WIND       PRES   REMARKS
CHEROKEE       CLEAR     64  52  64 CALM      30.10S
DENISON        MOCLDY    64  52  63 CALM      30.08F
ESTHERVILLE    MOCLDY    63  49  60 SW6       30.11R
LE MARS        PTCLDY    64  52  63 S3        30.10R
ORANGE CITY    PTCLDY    64  52  63 CALM      30.10S
SHELDON        PTCLDY    63  52  67 CALM      30.10R
SIOUX CITY     PTCLDY    65  52  62 SE3       30.09S
6HR MIN TEMP:  64; 6HR MAX TEMP:  70;

SPENCER        PTCLDY    64  52  64 CALM      30.11S
6HR MIN TEMP:  59; 6HR MAX TEMP:  67;

STORM LAKE     PTCLDY    61  57  88 CALM      30.10S
$$

ABBREVIATIONS USED IN REMARKS
   TC - TEMPERATURE IN CELSIUS
  WCI - WIND CHILL INDEX
   HX - HEAT INDEX
  VSB - VISIBILITY



USA.gov is the U.S. government's official web portal to all federal, state and local government web resources and services.